Date String (YYYY-MM-DD hh:mm:ss) UTC,Instrument flags,Ambient pressure (hPa),Sample flow (lpm),Bypass flow (lpm),Sample temperature (°C),Ambient temperature (°C),ASC tube jacket temperature (°C),LED temperature (°C),Box temperature (°C),Sample RH (%),Span deviation,Mass concentration (μg/m³),Mass concentration (μg/m³),Mass concentration (μg/m³)
DateTimeUTC,F1_M11,P_M11,Q1_M11,Q2_M11,T1_M11,T2_M11,T3_M11,T4_M11,T5_M11,U1_M11,ZSPAN_M11,X0_M11,X2_M11,X1_M11
2021-12-06 02:00:00,,0830.5,5.00,0.00,21.9,21.2,00.0,31.0,23.5,09.8,0000.0,0015.50,0003.29,0001.31
2021-12-06 02:01:00,,0830.5,4.99,0.00,21.9,21.2,00.0,31.0,23.5,09.8,0000.0,0015.65,0003.26,0001.30
2021-12-06 02:02:00,,0830.6,5.01,0.00,21.9,21.1,00.0,31.0,23.5,09.8,0000.0,0014.91,0003.26,0001.31
2021-12-06 02:03:00,,0830.5,5.01,0.00,21.9,21.1,00.0,31.0,23.5,09.8,0000.0,0016.04,0003.31,0001.32
2021-12-06 02:04:00,,0830.4,5.00,0.00,21.9,21.1,00.0,31.0,23.5,09.8,0000.0,0015.57,0003.32,0001.33
2021-12-06 02:05:00,,0830.4,4.99,0.00,21.9,21.1,00.0,31.0,23.5,09.8,0000.0,0015.29,0003.31,0001.34
2021-12-06 02:06:00,,0830.4,5.01,0.00,21.9,21.1,00.0,31.0,23.5,09.8,0000.0,0016.14,0003.35,0001.34
2021-12-06 02:07:00,,0830.5,4.99,0.00,21.9,21.1,00.0,31.0,23.5,09.8,0000.0,0016.61,0003.37,0001.37
2021-12-06 02:08:00,,0830.6,5.00,0.00,21.9,21.2,00.0,31.0,23.5,09.8,0000.0,0016.19,0003.38,0001.38
2021-12-06 02:09:00,,0830.6,5.00,0.00,21.9,21.1,00.0,31.0,23.5,09.8,0000.0,0016.08,0003.39,0001.41
2021-12-06 02:10:00,,0830.6,5.01,0.00,21.8,21.1,00.0,31.0,23.4,09.8,0000.0,0016.24,0003.43,0001.43
2021-12-06 02:11:00,,0830.6,5.00,0.00,21.8,21.1,00.0,31.0,23.4,09.7,0000.0,0017.37,0003.44,0001.46
2021-12-06 02:12:00,,0830.6,5.00,0.00,21.9,21.1,00.0,31.0,23.4,09.7,0000.0,0017.56,0003.45,0001.48
2021-12-06 02:13:00,,0830.5,4.99,0.00,21.9,21.1,00.0,31.0,23.5,09.7,0000.0,0017.59,0003.48,0001.48
2021-12-06 02:14:00,,0830.4,5.01,0.00,21.9,21.1,00.0,31.0,23.5,09.7,0000.0,0016.17,0003.47,0001.47
2021-12-06 02:15:00,,0830.4,4.99,0.00,21.9,21.1,00.0,30.9,23.5,09.7,0000.0,0015.07,0003.44,0001.46
2021-12-06 02:16:00,,0830.5,5.00,0.00,21.8,21.1,00.0,30.9,23.4,09.7,0000.0,0014.80,0003.44,0001.46
2021-12-06 02:17:00,,0830.6,5.01,0.00,21.8,21.1,00.0,30.9,23.4,09.7,0000.0,0014.45,0003.36,0001.44
2021-12-06 02:18:00,,0830.6,4.99,0.00,21.8,21.1,00.0,30.9,23.5,09.7,0000.0,0014.30,0003.35,0001.44
2021-12-06 02:19:00,,0830.6,5.00,0.00,21.8,21.2,00.0,30.9,23.5,09.7,0000.0,0015.61,0003.34,0001.44
2021-12-06 02:20:00,,0830.6,5.01,0.00,21.8,21.1,00.0,30.9,23.5,09.7,0000.0,0015.94,0003.37,0001.43
2021-12-06 02:21:00,,0830.7,4.99,0.00,21.8,21.1,00.0,30.9,23.4,09.7,0000.0,0016.72,0003.40,0001.43
2021-12-06 02:22:00,,0830.8,5.02,0.00,21.8,21.1,00.0,30.9,23.4,09.7,0000.0,0016.60,0003.49,0001.44
2021-12-06 02:23:00,,0830.8,4.99,0.00,21.8,21.1,00.0,30.9,23.4,09.7,0000.0,0016.10,0003.54,0001.45
2021-12-06 02:24:00,,0830.8,5.00,0.00,21.8,21.1,00.0,30.9,23.5,09.7,0000.0,0015.86,0003.46,0001.44
2021-12-06 02:25:00,,0830.8,4.99,0.00,21.8,21.1,00.0,30.9,23.5,09.6,0000.0,0016.33,0003.42,0001.44
2021-12-06 02:26:00,,0830.8,5.00,0.00,21.8,21.1,00.0,30.9,23.5,09.6,0000.0,0017.43,0003.43,0001.44
2021-12-06 02:27:00,,0830.8,4.99,0.00,21.8,21.1,00.0,30.9,23.5,09.6,0000.0,0018.37,0003.42,0001.44
2021-12-06 02:28:00,,0830.8,5.01,0.00,21.8,21.1,00.0,30.9,23.4,09.6,0000.0,0017.69,0003.44,0001.46
2021-12-06 02:29:00,,0830.8,4.99,0.00,21.8,21.1,00.0,30.9,23.4,09.6,0000.0,0017.07,0003.39,0001.46
2021-12-06 02:30:00,,0830.8,5.00,0.00,21.8,21.1,00.0,30.9,23.5,09.6,0000.0,0015.69,0003.33,0001.47
2021-12-06 02:31:00,,0830.8,4.99,0.00,21.8,21.1,00.0,30.9,23.5,09.6,0000.0,0015.65,0003.27,0001.45
2021-12-06 02:32:00,,0830.8,5.00,0.00,21.8,21.1,00.0,30.9,23.4,09.5,0000.0,0014.13,0003.22,0001.44
2021-12-06 02:33:00,,0830.8,5.01,0.00,21.7,21.0,00.0,30.9,23.4,09.5,0000.0,0013.04,0003.06,0001.40
2021-12-06 02:34:00,,0830.7,4.99,0.00,21.7,21.0,00.0,30.9,23.3,09.6,0000.0,0013.17,0002.94,0001.37
2021-12-06 02:35:00,,0830.6,5.01,0.00,21.7,20.9,00.0,30.8,23.3,09.6,0000.0,0013.31,0002.93,0001.34
2021-12-06 02:36:00,,0830.7,5.01,0.00,21.7,20.9,00.0,30.8,23.2,09.6,0000.0,0012.28,0002.87,0001.34
2021-12-06 02:37:00,,0830.7,5.00,0.00,21.6,20.8,00.0,30.8,23.1,09.6,0000.0,0010.97,0002.76,0001.32
2021-12-06 02:38:00,,0830.7,5.00,0.00,21.6,20.8,00.0,30.8,23.1,09.6,0000.0,0009.80,0002.70,0001.30
2021-12-06 02:39:00,,0830.7,5.00,0.00,21.5,20.7,00.0,30.8,23.0,09.7,0000.0,0009.69,0002.63,0001.26
2021-12-06 02:40:00,,0830.6,5.02,0.00,21.5,20.6,00.0,30.7,23.0,09.7,0000.0,0009.64,0002.63,0001.23
2021-12-06 02:41:00,,0830.7,5.00,0.00,21.6,21.0,00.0,30.8,23.2,09.6,0000.0,0010.14,0002.64,0001.20
2021-12-06 02:42:00,,0830.8,4.99,0.00,21.7,21.7,00.0,30.8,23.5,09.6,0000.0,0009.41,0002.64,0001.17
2021-12-06 02:43:00,,0830.7,5.01,0.00,21.8,22.4,00.0,30.8,23.8,09.5,0000.0,0009.53,0002.59,0001.16
2021-12-06 02:44:00,,0830.6,5.00,0.00,21.9,22.5,00.0,30.8,23.9,09.5,0000.0,0009.89,0002.54,0001.16
2021-12-06 02:45:00,,0830.6,5.00,0.00,22.0,22.3,00.0,30.9,23.8,09.5,0000.0,0009.71,0002.55,0001.17
2021-12-06 02:46:00,,0830.7,4.99,0.00,21.9,22.0,00.0,30.9,23.7,09.5,0000.0,0009.10,0002.57,0001.17
2021-12-06 02:47:00,,0830.7,5.00,0.00,21.9,21.8,00.0,30.9,23.6,09.5,0000.0,0010.02,0002.60,0001.16
2021-12-06 02:48:00,,0830.6,5.00,0.00,21.9,21.6,00.0,30.9,23.5,09.5,0000.0,0011.28,0002.59,0001.17
2021-12-06 02:49:00,,0830.6,5.01,0.00,21.8,21.5,00.0,30.9,23.5,09.5,0000.0,0011.34,0002.57,0001.16
2021-12-06 02:50:00,,0830.7,5.00,0.00,21.8,21.4,00.0,30.9,23.4,09.5,0000.0,0011.15,0002.59,0001.16
2021-12-06 02:51:00,,0830.7,5.01,0.00,21.8,21.3,00.0,30.9,23.3,09.6,0000.0,0012.06,0002.54,0001.16
2021-12-06 02:52:00,,0830.7,4.98,0.00,21.7,21.2,00.0,30.8,23.3,09.6,0000.0,0012.20,0002.51,0001.15
2021-12-06 02:53:00,,0830.7,5.01,0.00,21.7,21.1,00.0,30.8,23.3,09.6,0000.0,0012.01,0002.41,0001.15
2021-12-06 02:54:00,,0830.7,5.00,0.00,21.7,21.0,00.0,30.8,23.2,09.6,0000.0,0011.84,0002.32,0001.14
2021-12-06 02:55:00,,0830.6,5.00,0.00,21.6,20.9,00.0,30.8,23.2,09.6,0000.0,0011.31,0002.30,0001.13
2021-12-06 02:56:00,,0830.8,5.01,0.00,21.6,20.9,00.0,30.8,23.1,09.7,0000.0,0011.32,0002.27,0001.11
2021-12-06 02:57:00,,0830.7,4.98,0.00,21.6,20.9,00.0,30.8,23.2,09.7,0000.0,0010.96,0002.19,0001.09
2021-12-06 02:58:00,,0830.7,5.01,0.00,21.6,20.9,00.0,30.8,23.1,09.7,0000.0,0009.90,0002.06,0001.07
2021-12-06 02:59:00,,0830.7,5.01,0.00,21.6,20.8,00.0,30.8,23.1,09.7,0000.0,0010.06,0002.06,0001.06
